Weather in Lovran

Croatia     45°17′37″N   14°16′35″E
В апреле 2022 года жителям России запретили посещать сайт meteo.paraplan.net по решению Генеральной прокуратуры. Аудитория сайта уменьшилась в 10 раз. Владельцы сайта не видят смысла в поддержке погодного сервера в таких условиях. Сайт будет закрыт в октябре.
temp.,
°C
wind,
m/s
gust,
m/s
humid.,
%
clouds,
%
prec.,
mm/h
press.,
hPa
HPBL,
m
6 october, thu
thu623:00+15nnw2279100 0.0 102760
02:00+14n2274100 0.0 102759
05:00+14nnw2273100 0.0 102665
08:00+15n2378100 0.0 102788
11:00+19e0165100 0.0 1028319
14:00+21se126097 0.0 1027580
17:00+20ne117183 0.0 102627
20:00+17n4474100 0.0 102861
7 october, fri
fri723:00+16n4572100 0.0 102881
02:00+16n457294 0.0 102788
05:00+15n4473100 0.0 102686
08:00+15n347387 0.0 102588
11:00+20ene1160100 0.0 1025306
14:00+21s1154100 0.0 1023566
17:00+19s1168100 0.0 102184
20:00+17nnw2277100 0.0 102216
8 october, sat
sat823:00+16nnw2278100 0.0 102138
02:00+16n2277100 0.0 102036
05:00+15n2278100 0.0 102044
08:00+16n2277100 0.0 102054
11:00+19se1064100 0.0 1020313
14:00+19sse2164100 0.0 1019573
17:00+18ese017341 0.0 1019196
20:00+16n22835 0.0 102051
9 october, sun
sun923:00+16n33815 0.0 102161
02:00+17ne6117494 0.0 1022392
05:00+16ne477599 0.0 1022395
08:00+15nne467084 0.0 1023278
11:00+17ne465694 0.0 1023710
14:00+19ene3452100 0.0 1022519
17:00+18ne235819 0.0 1021247
20:00+14n44675 0.0 102295
10 october, mon
mon1023:00+13n44645 0.0 102296
02:00+13n44625 0.0 102296
05:00+13n33615 0.0 102182
08:00+14n33635 0.0 102179
11:00+18se11515 0.0 1022274
14:00+19se11495 0.0 1022488
17:00+18se11574 0.0 102172
20:00+15n22674 0.0 102230